Casa Grande, AZ

6:34 PM MST on August 23, 2016 (GMT -0700)
Casa Grande Municipal

Weather History for KCGZ - September, 2013

Change the Weather History Date:

Thursday, September 5, 2013

  Actual Average Record
Temperature  
Mean Temperature 92 °F -  
Max Temperature 105 °F 97 °F 105 °F (2002)
Min Temperature 78 °F 72 °F 66 °F (1999)
Cooling Degree Days 26    
Growing Degree Days 42 (Base 50)    
Moisture  
Dew Point 52 °F    
Average Humidity 26    
Maximum Humidity 45    
Minimum Humidity 14    
Precipitation  
Precipitation 0.00 in - - ()
Sea Level Pressure  
Sea Level Pressure 29.88 in    
Wind  
Wind Speed 4 mph (ESE)    
Max Wind Speed 36 mph    
Max Gust Speed 43 mph    
Visibility 10 miles    
Events      
Averages and records for this station are not official NWS values.
T = Trace of Precipitation, MM = Missing Value Source: NWS Daily Summary

Daily Weather History Graph

Daily Weather History Graph

Search for Another Location

Airport or City:

Trip Planner

Search our weather history database for the weather conditions in past years. The results will help you decide how hot, cold, wet, or windy it might be!

Date:

Astronomy

Sep. 05, 2013 Rise Set
Actual Time 6:04 AM MST 6:46 PM MST
Civil Twilight 5:39 AM MST 7:11 PM MST
Nautical Twilight 5:09 AM MST 7:40 PM MST
Astronomical Twilight 4:39 AM MST 8:10 PM MST
Moon 6:16 AM MST (9/5) 6:45 PM MST (9/5)
Length of Visible Light 13h 31m
Length of Day
12h 41m
New Moon, 0% of the Moon is Illuminated
Sep 5
New Moon
Sep 12
First Quarter
Sep 19
Full
Sep 26
Last Quarter
Oct 4
New

Hourly Weather History & Observations

Time (MST) Temp. Heat Index Dew Point Humidity Pressure Visibility Wind Dir Wind Speed Gust Speed Precip Events Conditions
12:15 AM 87.8 °F 86.1 °F 55.4 °F 33% 29.89 in 10.0 mi Calm Calm - N/A   Clear
12:35 AM 84.2 °F 83.5 °F 57.2 °F 40% 29.89 in 10.0 mi Calm Calm - N/A   Clear
12:55 AM 84.2 °F 83.5 °F 57.2 °F 40% 29.89 in 10.0 mi Calm Calm - N/A   Clear
1:15 AM 84.2 °F 83.5 °F 57.2 °F 40% 29.89 in 10.0 mi Calm Calm - N/A   Clear
1:35 AM 84.2 °F 83.5 °F 57.2 °F 40% 29.89 in 10.0 mi Calm Calm - N/A   Clear
1:55 AM 84.2 °F 83.5 °F 57.2 °F 40% 29.88 in 10.0 mi NE 3.5 mph - N/A   Clear
2:15 AM 82.4 °F 82.0 °F 57.2 °F 42% 29.88 in 10.0 mi Calm Calm - N/A   Clear
2:35 AM 82.4 °F 82.0 °F 57.2 °F 42% 29.88 in 10.0 mi Calm Calm - N/A   Clear
2:55 AM 82.4 °F 82.0 °F 57.2 °F 42% 29.88 in 10.0 mi East 5.8 mph - N/A   Clear
3:15 AM 84.2 °F 83.5 °F 57.2 °F 40% 29.88 in 10.0 mi East 3.5 mph - N/A   Clear
3:35 AM 82.4 °F 82.0 °F 57.2 °F 42% 29.87 in 10.0 mi Calm Calm - N/A   Clear
3:55 AM 80.6 °F 80.8 °F 57.2 °F 45% 29.88 in 10.0 mi NE 5.8 mph - N/A   Clear
4:15 AM 80.6 °F 80.8 °F 57.2 °F 45% 29.87 in 10.0 mi ENE 4.6 mph - N/A   Clear
4:35 AM 80.6 °F 80.8 °F 57.2 °F 45% 29.88 in 10.0 mi Calm Calm - N/A   Clear
4:55 AM 82.4 °F 82.0 °F 57.2 °F 42% 29.88 in 10.0 mi ENE 4.6 mph - N/A   Clear
5:15 AM 80.6 °F 80.5 °F 55.4 °F 42% 29.89 in 10.0 mi Calm Calm - N/A   Clear
5:35 AM 80.6 °F 80.5 °F 55.4 °F 42% 29.89 in 10.0 mi Calm Calm - N/A   Clear
5:55 AM 78.8 °F - 55.4 °F 44% 29.89 in 10.0 mi Calm Calm - N/A   Clear
6:15 AM 78.8 °F - 53.6 °F 42% 29.90 in 10.0 mi ENE 3.5 mph - N/A   Clear
6:35 AM 78.8 °F - 53.6 °F 42% 29.91 in 10.0 mi NE 4.6 mph - N/A   Clear
6:55 AM 82.4 °F 81.4 °F 53.6 °F 37% 29.91 in 10.0 mi East 5.8 mph - N/A   Clear
7:15 AM 84.2 °F 82.8 °F 53.6 °F 35% 29.92 in 10.0 mi ESE 4.6 mph - N/A   Clear
7:35 AM 84.2 °F 82.8 °F 53.6 °F 35% 29.93 in 10.0 mi East 5.8 mph - N/A   Clear
7:55 AM 86.0 °F 84.2 °F 53.6 °F 33% 29.93 in 10.0 mi ESE 8.1 mph - N/A   Clear
8:15 AM 87.8 °F 85.7 °F 53.6 °F 31% 29.93 in 10.0 mi SE 5.8 mph - N/A   Clear
8:35 AM 87.8 °F 85.7 °F 53.6 °F 31% 29.94 in 10.0 mi SE 5.8 mph - N/A   Clear
8:55 AM 89.6 °F 87.3 °F 53.6 °F 29% 29.94 in 10.0 mi SSE 5.8 mph - N/A   Clear
9:15 AM 91.4 °F - 51.8 °F 26% 29.94 in 10.0 mi ESE 6.9 mph - N/A   Clear
9:35 AM 95.0 °F 92.7 °F 53.6 °F 25% 29.94 in 10.0 mi ESE 8.1 mph - N/A   Clear
9:55 AM 96.8 °F 94.4 °F 53.6 °F 23% 29.94 in 10.0 mi East 6.9 mph - N/A   Clear
10:15 AM 98.6 °F 96.4 °F 53.6 °F 22% 29.94 in 10.0 mi ESE 9.2 mph - N/A   Clear
10:35 AM 98.6 °F - 51.8 °F 21% 29.93 in 10.0 mi ESE 8.1 mph - N/A   Clear
10:55 AM 100.4 °F - 51.8 °F 20% 29.93 in 10.0 mi East 6.9 mph - N/A   Clear
11:15 AM 102.2 °F - 51.8 °F 18% 29.92 in 10.0 mi SE 8.1 mph - N/A   Clear
11:35 AM 102.2 °F - 50.0 °F 17% 29.92 in 10.0 mi Calm Calm - N/A   Clear
11:55 AM 104.0 °F - 51.8 °F 17% 29.91 in 10.0 mi ESE 11.5 mph - N/A   Clear
12:15 PM 104.0 °F - 51.8 °F 17% 29.91 in 10.0 mi ESE 9.2 mph 17.3 mph N/A   Clear
12:35 PM 105.8 °F - 51.8 °F 17% 29.90 in 10.0 mi SE 11.5 mph 16.1 mph N/A   Clear
12:55 PM 105.8 °F - 50.0 °F 15% 29.89 in 10.0 mi SSE 11.5 mph 16.1 mph N/A   Clear
1:15 PM 105.8 °F - 48.2 °F 14% 29.89 in 10.0 mi East 12.7 mph 18.4 mph N/A   Clear
1:35 PM 105.8 °F - 46.4 °F 14% 29.88 in 10.0 mi East 12.7 mph 17.3 mph N/A   Clear
1:55 PM 105.8 °F - 48.2 °F 14% 29.87 in 10.0 mi East 9.2 mph - N/A   Clear
2:15 PM 105.8 °F - 48.2 °F 14% 29.86 in 10.0 mi SE 11.5 mph 19.6 mph N/A   Clear
2:35 PM 105.8 °F - 48.2 °F 14% 29.85 in 10.0 mi ENE 11.5 mph - N/A   Clear
2:55 PM 105.8 °F - 48.2 °F 14% 29.85 in 10.0 mi ENE 9.2 mph - N/A   Clear
3:15 PM 105.8 °F - 46.4 °F 14% 29.84 in 10.0 mi East 12.7 mph 18.4 mph N/A   Clear
3:35 PM 105.8 °F - 46.4 °F 14% 29.83 in 10.0 mi East 8.1 mph - N/A   Clear
3:55 PM 105.8 °F - 48.2 °F 14% 29.83 in 10.0 mi SSE 8.1 mph - N/A   Clear
4:15 PM 105.8 °F - 48.2 °F 14% 29.82 in 10.0 mi SE 5.8 mph - N/A   Clear
4:35 PM 105.8 °F - 48.2 °F 14% 29.82 in 10.0 mi Calm Calm - N/A   Clear
4:55 PM 105.8 °F - 46.4 °F 14% 29.81 in 10.0 mi East 6.9 mph - N/A   Clear
5:15 PM 105.8 °F - 46.4 °F 14% 29.81 in 10.0 mi East 8.1 mph - N/A   Clear
5:35 PM 105.8 °F - 46.4 °F 14% 29.81 in 10.0 mi East 8.1 mph - N/A   Clear
5:55 PM 105.8 °F - 46.4 °F 14% 29.81 in 10.0 mi East 6.9 mph - N/A   Clear
6:15 PM 105.8 °F - 46.4 °F 14% 29.81 in 10.0 mi East 12.7 mph - N/A   Clear
6:35 PM 104.0 °F - 46.4 °F 14% 29.81 in 10.0 mi East 10.4 mph - N/A   Clear
6:55 PM 102.2 °F - 46.4 °F 15% 29.82 in 10.0 mi East 6.9 mph - N/A   Clear
7:15 PM 102.2 °F - 46.4 °F 15% 29.82 in 10.0 mi ENE 5.8 mph - N/A   Clear
7:35 PM 100.4 °F - 48.2 °F 17% 29.83 in 10.0 mi ENE 3.5 mph - N/A   Clear
7:55 PM 98.6 °F - 48.2 °F 18% 29.84 in 10.0 mi ENE 3.5 mph - N/A   Clear
8:15 PM 96.8 °F 94.4 °F 53.6 °F 23% 29.86 in 7.0 mi South 35.7 mph 42.6 mph N/A   Mostly Cloudy
8:35 PM 98.6 °F - 51.8 °F 21% 29.88 in 10.0 mi SSW 20.7 mph 28.8 mph N/A   Scattered Clouds
8:55 PM 98.6 °F - 50.0 °F 19% 29.87 in 10.0 mi SW 9.2 mph 24.2 mph N/A   Clear
9:15 PM 98.6 °F - 50.0 °F 19% 29.87 in 10.0 mi SSW 8.1 mph - N/A   Clear
9:35 PM 96.8 °F - 51.8 °F 22% 29.88 in 10.0 mi SW 9.2 mph - N/A   Clear
9:55 PM 95.0 °F 92.7 °F 53.6 °F 25% 29.88 in 10.0 mi SSW 6.9 mph - N/A   Clear
10:15 PM 93.2 °F 90.8 °F 53.6 °F 26% 29.88 in 10.0 mi SW 6.9 mph - N/A   Clear
10:35 PM 93.2 °F 91.3 °F 55.4 °F 28% 29.89 in 10.0 mi Calm Calm - N/A   Clear
10:55 PM 91.4 °F 89.4 °F 55.4 °F 29% 29.88 in 10.0 mi Calm Calm - N/A   Clear
11:15 PM 91.4 °F 89.4 °F 55.4 °F 29% 29.89 in 10.0 mi Calm Calm - N/A   Clear
11:35 PM 89.6 °F 87.7 °F 55.4 °F 31% 29.89 in 10.0 mi Calm Calm - N/A   Clear
11:55 PM 87.8 °F 85.7 °F 53.6 °F 31% 29.89 in 10.0 mi Calm Calm - N/A   Clear